Location: *
(37.5724°S, 58.0067°E)
Time: 09:58:53
(UTC+00:00)

NOSS 3-1 (C) - Pass Details

Date: 26 September 2020
Orbit: 743 x 1466 km, 63.4° (Epoch: 09 October)

Event Time Altitude Azimuth Distance (km) Brightness Sun altitude
Exits shadow 23:31:32 49° 268° (W) 1,725 4.3 -27.2°
Maximum altitude 23:33:09 55° 233° (SW) 1,595 4.3 -26.9°
Drops below altitude 10° 23:40:51 10° 155° (SSE) 3,179 6.8 -25.5°
Sets 23:43:31 0° 150° (SSE) 4,047 7.5 -25.0°
